CCA1429 ZBAA-ZUCK

Flight info

Callsign CCA1429
Flight time N/A
Altitude 32100
Route BOTPU7X BOTPU W47 VEXEB/K0865S1040 W47 LOVRA W276 AVDIG W666 VINEX VINXD2
Aircraft A320/M-SDE3FGHIRWY/LB1

Departure

Time 2026-05-07 10:28
Airport Beijing Capital International Airport (ZBAA)

Arrival

Time N/A
Airport Chongqing Jiangbei International Airport (ZUCK)
Time Latitude Longitude Altitude Speed Heading
2026-05-07 10:05 40.05592 116.60763 117 ft 0 kts 104°
2026-05-07 10:20 40.05595 116.60746 117 ft 2 kts 104°
2026-05-07 10:20 40.05598 116.60727 117 ft 2 kts 104°
2026-05-07 10:20 40.05602 116.60708 117 ft 2 kts 104°
2026-05-07 10:21 40.05606 116.60689 117 ft 2 kts 104°
2026-05-07 10:21 40.05609 116.60670 117 ft 2 kts 115°
2026-05-07 10:21 40.05617 116.60653 117 ft 2 kts 126°
2026-05-07 10:21 40.05627 116.60638 117 ft 2 kts 139°
2026-05-07 10:22 40.05639 116.60627 117 ft 2 kts 151°
2026-05-07 10:22 40.05652 116.60619 117 ft 2 kts 163°
2026-05-07 10:22 40.05662 116.60616 117 ft 0 kts 171°
2026-05-07 10:22 40.05668 116.60615 117 ft 0 kts 173°
2026-05-07 10:24 40.05658 116.60616 117 ft 2 kts 173°
2026-05-07 10:24 40.05626 116.60619 117 ft 5 kts 179°
2026-05-07 10:25 40.05582 116.60596 117 ft 8 kts 234°
2026-05-07 10:25 40.05567 116.60516 117 ft 10 kts 263°
2026-05-07 10:25 40.05559 116.60415 117 ft 11 kts 265°
2026-05-07 10:25 40.05550 116.60303 117 ft 13 kts 262°
2026-05-07 10:26 40.05537 116.60181 117 ft 13 kts 263°
2026-05-07 10:26 40.05550 116.60065 117 ft 13 kts 302°
2026-05-07 10:26 40.05624 116.60005 117 ft 7 kts 352°
2026-05-07 10:26 40.05628 116.60004 117 ft 0 kts 353°
2026-05-07 10:27 40.05633 116.60004 117 ft 2 kts 353°
2026-05-07 10:27 40.05766 116.59984 118 ft 50 kts 354°
2026-05-07 10:27 40.06349 116.59894 118 ft 116 kts 353°
2026-05-07 10:28 40.07343 116.59724 197 ft 161 kts 352°
2026-05-07 10:28 40.08467 116.59551 741 ft 167 kts 353°
2026-05-07 10:28 40.09613 116.59390 1479 ft 167 kts 354°
2026-05-07 10:28 40.10748 116.59223 2154 ft 169 kts 354°
2026-05-07 10:29 40.11955 116.59041 2603 ft 183 kts 353°
2026-05-07 10:29 40.13276 116.58834 3015 ft 201 kts 353°
2026-05-07 10:29 40.14757 116.58601 3385 ft 224 kts 353°
2026-05-07 10:30 40.18059 116.58077 4594 ft 251 kts 353°
2026-05-07 10:30 40.19777 116.57805 5461 ft 252 kts 352°
2026-05-07 10:30 40.21510 116.57529 6335 ft 254 kts 352°
2026-05-07 10:30 40.23261 116.57248 7201 ft 256 kts 351°
2026-05-07 10:31 40.24961 116.56632 8029 ft 257 kts 335°
2026-05-07 10:31 40.26458 116.55372 8867 ft 260 kts 321°
2026-05-07 10:31 40.27819 116.53824 9672 ft 263 kts 320°
2026-05-07 10:31 40.29177 116.52236 10467 ft 265 kts 320°
2026-05-07 10:32 40.30547 116.50538 10938 ft 281 kts 311°
2026-05-07 10:32 40.31498 116.48183 11306 ft 305 kts 289°
2026-05-07 10:32 40.31717 116.45328 11663 ft 327 kts 275°
2026-05-07 10:32 40.31703 116.42278 11975 ft 344 kts 275°
2026-05-07 10:33 40.31694 116.39098 12305 ft 358 kts 275°
2026-05-07 10:33 40.31685 116.35789 12889 ft 365 kts 275°
2026-05-07 10:33 40.31676 116.32478 13564 ft 368 kts 275°
2026-05-07 10:33 40.31669 116.29144 14224 ft 370 kts 275°
2026-05-07 10:34 40.31667 116.25751 14863 ft 374 kts 275°
2026-05-07 10:34 40.31664 116.22360 15503 ft 377 kts 275°
2026-05-07 10:34 40.31662 116.19130 16075 ft 380 kts 275°
2026-05-07 10:34 40.31659 116.15679 16680 ft 383 kts 275°
2026-05-07 10:35 40.31652 116.12171 17266 ft 386 kts 275°
2026-05-07 10:35 40.31644 116.08675 17842 ft 389 kts 275°
2026-05-07 10:35 40.31633 116.05103 18416 ft 392 kts 275°
2026-05-07 10:35 40.31622 116.01527 18970 ft 394 kts 275°
2026-05-07 10:36 40.31609 115.97913 19525 ft 396 kts 275°
2026-05-07 10:36 40.31599 115.94300 20044 ft 399 kts 275°
2026-05-07 10:36 40.31587 115.90665 20557 ft 402 kts 275°
2026-05-07 10:36 40.31572 115.87038 21110 ft 403 kts 275°
2026-05-07 10:37 40.31567 115.85691 21313 ft 404 kts 275°
2026-05-07 10:37 40.31553 115.82354 21780 ft 405 kts 275°
2026-05-07 10:37 40.31536 115.78625 22286 ft 408 kts 275°
2026-05-07 10:37 40.31369 115.74918 22726 ft 418 kts 265°
2026-05-07 10:38 40.30369 115.71284 23171 ft 436 kts 248°
2026-05-07 10:38 40.28483 115.68079 23629 ft 454 kts 230°
2026-05-07 10:38 40.25870 115.65719 24050 ft 470 kts 214°
2026-05-07 10:38 40.22949 115.63782 24496 ft 472 kts 212°
2026-05-07 10:39 40.22120 115.63240 24601 ft 473 kts 213°
2026-05-07 10:40 40.20544 115.62211 24784 ft 475 kts 213°
2026-05-07 10:40 40.17614 115.60288 25375 ft 472 kts 213°
2026-05-07 10:40 40.14702 115.58363 26073 ft 466 kts 214°
2026-05-07 10:41 40.11831 115.56442 26496 ft 466 kts 214°
2026-05-07 10:41 40.08942 115.54497 26859 ft 468 kts 214°
2026-05-07 10:41 40.06046 115.52548 27206 ft 470 kts 215°
2026-05-07 10:41 40.03212 115.50462 27527 ft 463 kts 224°
2026-05-07 10:42 40.01002 115.47620 27838 ft 443 kts 243°
2026-05-07 10:42 39.99589 115.44156 28174 ft 424 kts 259°
2026-05-07 10:42 39.99003 115.40498 28504 ft 410 kts 273°
2026-05-07 10:42 39.99088 115.36837 28767 ft 405 kts 280°
2026-05-07 10:43 39.99299 115.33141 29022 ft 407 kts 279°
2026-05-07 10:43 39.99497 115.29503 29349 ft 407 kts 279°
2026-05-07 10:43 39.99692 115.25841 29714 ft 405 kts 279°
2026-05-07 10:43 39.99881 115.22201 30104 ft 402 kts 279°
2026-05-07 10:44 40.00070 115.18537 30469 ft 400 kts 280°
2026-05-07 10:44 40.00254 115.14922 30724 ft 399 kts 279°
2026-05-07 10:44 40.00367 115.12702 30871 ft 398 kts 279°
2026-05-07 10:44 40.00554 115.09059 31096 ft 399 kts 279°
2026-05-07 10:45 40.00735 115.05503 31332 ft 398 kts 279°
2026-05-07 10:45 40.00912 115.01883 31555 ft 398 kts 279°
2026-05-07 10:45 40.01051 114.99071 31705 ft 398 kts 279°
2026-05-07 10:45 40.01120 114.97676 31774 ft 398 kts 279°